Flag for Germany

Past Weather in Dresden, Saxony, Germany — Yesterday and Last 2 Weeks

Now
77 °F

Sunny.


Feels Like: 79 °F
Forecast: 75 / 67 °F
Wind: 5 mph from North

Location: Dresden-Klotzsche
Current Time: Aug 14, 2020 at 11:21:34 am
Latest Report: Aug 14, 2020 at 10:20 am
Visibility: 10 mi
Pressure29.92 "Hg
Humidity: 61%
Dew Point: 63 °F
Location of DresdenLocation

Past Weather in Dresden — Graph

°F

Dresden Temperature Yesterday

Maximum temperature yesterday: 91 °F (at 4:20 pm)
Minimum temperature yesterday: 66 °F (at 6:20 am)
Average temperature yesterday: 79 °F

High & Low Weather Summary for the Past Weeks

 TemperatureHumidityPressure
High93 °F (Aug 8, 4:50 pm)100% (Aug 2, 7:50 pm)30.21 "Hg (Aug 2, 7:50 pm)
Low52 °F (Aug 5, 5:20 am)18% (Aug 1, 3:50 pm)29.83 "Hg (Aug 3, 5:50 pm)
Average73 °F59%30.04 "Hg
* Reported Jul 30 10:20 am — Aug 14 10:20 am, Dresden. Weather by CustomWeather, © 2020

Note: Actual official high and low records may vary slightly from our data, if they occured in-between our weather recording intervals... More about our weather records

Dresden Weather History for the Previous 24 Hours

Scroll right to see more
 ConditionsComfort  
Time TempWeatherWind HumidityBarometerVisibility
10:20 am
Fri, Aug 14
77 °FSunny.5 mph61%29.92 "Hg10 mi
9:50 am75 °FSunny.6 mph65%29.92 "Hg10 mi
9:20 am73 °FPassing clouds.5 mph69%29.92 "HgN/A
8:50 am72 °FPassing clouds.5 mph78%29.92 "HgN/A
8:20 am72 °FPassing clouds.7 mph73%29.92 "HgN/A
7:50 am72 °FPassing clouds.6 mph78%29.92 "HgN/A
7:20 am70 °FPassing clouds.6 mph83%29.92 "HgN/A
6:50 am70 °FSunny.5 mph78%29.92 "Hg10 mi
6:20 am70 °FSunny.5 mph78%29.92 "Hg10 mi
5:50 am70 °FSunny.2 mph83%29.92 "Hg10 mi
5:20 am70 °FClear.3 mph83%29.92 "Hg10 mi
4:50 am70 °FPassing clouds.3 mph78%29.92 "HgN/A
4:20 am70 °FPassing clouds.3 mph83%29.92 "HgN/A
3:50 am72 °FLight rain. Passing clouds.6 mph73%29.92 "HgN/A
3:20 am73 °FLight rain. Passing clouds.7 mph69%29.92 "HgN/A
2:50 am73 °FPassing clouds.3 mph69%29.92 "HgN/A
2:20 am73 °FLight rain. Passing clouds.2 mph65%29.92 "HgN/A
1:50 am73 °FClear.5 mph61%29.92 "Hg10 mi
1:20 am73 °FPassing clouds.3 mph61%29.92 "HgN/A
12:50 am73 °FPassing clouds.5 mph61%29.92 "HgN/A
12:20 am75 °FClear.1 mph54%29.92 "Hg10 mi
11:50 pm
Thu, Aug 13
75 °FClear.3 mph57%29.92 "Hg10 mi
11:20 pm77 °FClear.1 mph54%29.92 "Hg10 mi
10:50 pm77 °FClear.2 mph51%29.92 "Hg10 mi
10:20 pm79 °FPassing clouds.3 mph48%29.92 "HgN/A
9:50 pm81 °FClear.6 mph42%29.92 "Hg10 mi
9:20 pm81 °FClear.7 mph45%29.92 "Hg10 mi
8:50 pm82 °FClear.8 mph42%29.92 "Hg10 mi
8:20 pm82 °FSunny.10 mph42%29.92 "Hg10 mi
7:50 pm84 °FSunny.9 mph40%29.92 "Hg10 mi
7:20 pm84 °FSunny.13 mph40%29.92 "Hg10 mi
6:50 pm84 °FSunny.13 mph43%29.89 "Hg10 mi
6:20 pm86 °FSunny.15 mph38%29.89 "Hg10 mi
5:50 pm88 °FSunny.14 mph35%29.89 "Hg10 mi
5:20 pm88 °FPassing clouds.14 mph35%29.92 "HgN/A
4:50 pm90 °FSunny.13 mph29%29.92 "Hg10 mi
4:20 pm91 °FPassing clouds.9 mph26%29.92 "HgN/A
3:50 pm90 °FPassing clouds.5 mph26%29.92 "HgN/A
3:20 pm90 °FPassing clouds.7 mph26%29.92 "HgN/A
2:50 pm88 °FPassing clouds.7 mph29%29.92 "HgN/A
2:20 pm90 °FSunny.6 mph29%29.92 "Hg10 mi
1:50 pm88 °FSunny.5 mph31%29.95 "Hg10 mi
1:20 pm88 °FSunny.6 mph33%29.95 "Hg10 mi
12:50 pm86 °FPassing clouds.8 mph35%29.95 "HgN/A
12:20 pm86 °FSunny.3 mph38%29.95 "Hg10 mi
11:50 am86 °FSunny.3 mph40%29.98 "Hg10 mi
11:20 am84 °FPassing clouds.5 mph43%29.98 "HgN/A
Weather by CustomWeather, © 2020

See weather overview